User: anonymous   Login
Location: East Arcadia
(34.1056°N, 118.0176°W)
Time: 07:31:18
(UTC+00:00)
Language:

Cosmos 1743 - Orbit

View from above orbital plane
View from above orbital plane
View from above satellite
View from above satellite

Ground track
Ground track

The orbit data is extracted from the following two-line orbital elements,

1 16719U 86034A   23275.44725963  .00009908  00000-0  42371-3 0  9990
2 16719  82.5460 255.3139 0009244 211.1780 148.8909 15.22666247 43702
Epoch (UTC): 02 October 2023 10:44:03
Eccentricity: 0.0009244
inclination: 82.5460°
perigee height: 491 km
apogee height: 504 km
right ascension of ascending node: 255.3139°
argument of perigee: 211.1780°
revolutions per day: 15.22666247
mean anomaly at epoch: 148.8909°
orbit number at epoch: 4370

The dashed part of the orbit path shows where the satellite is in the earth's shadow,  

DLR